MOL Paramount — 3ECH9 — position and weather

sailwx.info

Track history (hours):
 
Tides and Currents Weather Stations Pressure Air Temp Water Temp Dewpoint Dewpoint Depression Visibility Wind Speed Wind Dir Waves Ship Positions

MOL Paramount

Last reported at 2014-Jul-27 15:15 UTC. Time now 2014-Jul-30 17:13 UTC.
Position N 01°09' E 103°45'.

Length 293 m; draft 12.4 m.

Type: Cargo ship. MMSI: 371519000.

Date/timePositionNaut miles runAvg speedWind from/ knotsBaromVisibWave heightAir tempDewpointWater temp
2014-Jul-27 15:15N 01°09' E 103°45'913.6
2014-Jul-27 14:33N 01°13' E 103°53'5 4.8
2014-Jul-27 13:33N 01°17' E 103°56'0 0.1
2014-Jul-27 12:33N 01°17' E 103°56'0 0.0
2014-Jul-27 11:33N 01°17' E 103°56'0 0.0
2014-Jul-27 10:33N 01°17' E 103°56'0 0.1
2014-Jul-27 09:33N 01°17' E 103°56'0 0.0
2014-Jul-27 08:33N 01°17' E 103°56'0 0.1
2014-Jul-27 07:33N 01°17' E 103°56'0 0.0
2014-Jul-27 06:33N 01°17' E 103°56'0 0.0
2014-Jul-27 05:33N 01°17' E 103°56'0 0.1
2014-Jul-27 04:33N 01°17' E 103°56'0 0.1
2014-Jul-27 03:33N 01°17' E 103°56'0 0.0
2014-Jul-27 02:33N 01°17' E 103°56'0 0.3
2014-Jul-27 01:33N 01°17' E 103°56'0 0.1
2014-Jul-27 00:33N 01°17' E 103°56'0 0.2
2014-Jul-26 23:33N 01°17' E 103°56'0 0.1
2014-Jul-26 22:27N 01°17' E 103°56'0 0.0
2014-Jul-26 21:27N 01°17' E 103°56'0 0.0
2014-Jul-26 20:33N 01°17' E 103°56'0 0.0
2014-Jul-26 19:33N 01°17' E 103°56'0 0.1
2014-Jul-26 18:33N 01°17' E 103°56'0 0.1
2014-Jul-26 17:33N 01°17' E 103°56'2 1.9
2014-Jul-26 16:33N 01°15' E 103°56'3 3.0
2014-Jul-26 15:33N 01°15' E 103°53'0 0.2
2014-Jul-26 14:33N 01°14' E 103°53'0 0.0
2014-Jul-26 13:33N 01°14' E 103°53'0 0.0
2014-Jul-26 12:33N 01°14' E 103°53'0 0.0
2014-Jul-26 11:24N 01°14' E 103°53'0 0.2
2014-Jul-26 10:33N 01°14' E 103°53'0 0.1
2014-Jul-26 09:33N 01°15' E 103°53'3 2.4
2014-Jul-26 08:32N 01°16' E 103°51'0 0.0
2014-Jul-26 07:32N 01°16' E 103°51'0 0.0
2014-Jul-26 06:32N 01°16' E 103°51'0 0.0
2014-Jul-26 05:32N 01°16' E 103°51'0 0.0
2014-Jul-26 04:32N 01°16' E 103°51'0 0.0
2014-Jul-26 03:32N 01°16' E 103°51'0 0.0
2014-Jul-26 02:32N 01°16' E 103°51'0 0.0
2014-Jul-26 01:32N 01°16' E 103°51'0 0.0
2014-Jul-26 00:32N 01°16' E 103°51'0 0.0
2014-Jul-25 23:32N 01°16' E 103°51'0 0.0
2014-Jul-25 22:32N 01°16' E 103°51'0 0.0
2014-Jul-25 21:32N 01°16' E 103°51'0 0.0
2014-Jul-25 20:32N 01°16' E 103°51'0 0.0
2014-Jul-25 19:32N 01°16' E 103°51'0 0.0
2014-Jul-25 18:32N 01°16' E 103°51'0 0.0
2014-Jul-25 17:32N 01°16' E 103°51'0 0.0
2014-Jul-25 16:32N 01°16' E 103°51'0 0.0
2014-Jul-25 15:32N 01°16' E 103°51'0 0.0
2014-Jul-25 14:32N 01°16' E 103°51'0 0.0
2014-Jul-25 13:32N 01°16' E 103°51'0 0.0
2014-Jul-25 12:32N 01°16' E 103°51'0 0.0
2014-Jul-25 11:32N 01°16' E 103°51'0 0.0
2014-Jul-25 10:32N 01°16' E 103°51'0 0.0
2014-Jul-25 09:32N 01°16' E 103°51'0 0.0
2014-Jul-25 08:33N 01°16' E 103°51'1 1.0
2014-Jul-25 07:34N 01°15' E 103°51'3 3.5
2014-Jul-25 06:33N 01°14' E 103°55'5 5.1
2014-Jul-25 05:33N 01°16' E 103°60'  
2014-Jul-20 04:33N 22°34' E 114°17'1 0.9
2014-Jul-20 03:33N 22°34' E 114°16'0 0.0
2014-Jul-20 02:33N 22°34' E 114°16'0 0.0
2014-Jul-20 01:33N 22°34' E 114°16'0 0.0
2014-Jul-20 00:33N 22°34' E 114°16'0 0.0
2014-Jul-19 23:33N 22°34' E 114°16'0 0.0
2014-Jul-19 22:21N 22°34' E 114°16'0 0.0
2014-Jul-19 21:33N 22°34' E 114°16'0 0.0
2014-Jul-19 20:33N 22°34' E 114°16'0 0.0
2014-Jul-19 19:33N 22°34' E 114°16'0 0.0
2014-Jul-19 18:33N 22°34' E 114°16'0 0.0
2014-Jul-19 17:33N 22°34' E 114°16'0 0.0
2014-Jul-19 16:27N 22°34' E 114°16'0 0.0
2014-Jul-19 15:33N 22°34' E 114°16'19 1.3
2014-Jul-19 01:14N 22°18' E 114°06'2 0.2
2014-Jul-18 11:16N 22°20' E 114°07'17 5.5
2014-Jul-18 08:09N 22°04' E 114°16'1 0.9
2014-Jul-18 07:28N 22°05' E 114°15'0 0.0
2014-Jul-18 06:16N 22°05' E 114°15'0 0.0
2014-Jul-18 05:28N 22°05' E 114°15'0 0.0
2014-Jul-18 04:28N 22°04' E 114°15'0 0.0
2014-Jul-18 03:28N 22°04' E 114°15'0 0.0
2014-Jul-18 02:28N 22°04' E 114°15'0 0.0
2014-Jul-18 01:10N 22°04' E 114°15'0 0.0
2014-Jul-18 00:22N 22°04' E 114°15'  
Track history (hours):
 
Tides and Currents Weather Stations Pressure Air Temp Water Temp Dewpoint Dewpoint Depression Visibility Wind Speed Wind Dir Waves Ship Positions

MOL Paramount

Last reported at 2014-Jul-27 15:15 UTC. Time now 2014-Jul-30 17:13 UTC.
Position N 01°09' E 103°45'.

Length 293 m; draft 12.4 m.

Type: Cargo ship. MMSI: 371519000.

Date/timePositionNaut miles runAvg speedWind from/ knotsBaromVisibWave heightAir tempDewpointWater temp
2014-Jul-27 15:15N 01°09' E 103°45'913.6
2014-Jul-27 14:33N 01°13' E 103°53'5 4.8
2014-Jul-27 13:33N 01°17' E 103°56'0 0.1
2014-Jul-27 12:33N 01°17' E 103°56'0 0.0
2014-Jul-27 11:33N 01°17' E 103°56'0 0.0
2014-Jul-27 10:33N 01°17' E 103°56'0 0.1
2014-Jul-27 09:33N 01°17' E 103°56'0 0.0
2014-Jul-27 08:33N 01°17' E 103°56'0 0.1
2014-Jul-27 07:33N 01°17' E 103°56'0 0.0
2014-Jul-27 06:33N 01°17' E 103°56'0 0.0
2014-Jul-27 05:33N 01°17' E 103°56'0 0.1
2014-Jul-27 04:33N 01°17' E 103°56'0 0.1
2014-Jul-27 03:33N 01°17' E 103°56'0 0.0
2014-Jul-27 02:33N 01°17' E 103°56'0 0.3
2014-Jul-27 01:33N 01°17' E 103°56'0 0.1
2014-Jul-27 00:33N 01°17' E 103°56'0 0.2
2014-Jul-26 23:33N 01°17' E 103°56'0 0.1
2014-Jul-26 22:27N 01°17' E 103°56'0 0.0
2014-Jul-26 21:27N 01°17' E 103°56'0 0.0
2014-Jul-26 20:33N 01°17' E 103°56'0 0.0
2014-Jul-26 19:33N 01°17' E 103°56'0 0.1
2014-Jul-26 18:33N 01°17' E 103°56'0 0.1
2014-Jul-26 17:33N 01°17' E 103°56'2 1.9
2014-Jul-26 16:33N 01°15' E 103°56'3 3.0
2014-Jul-26 15:33N 01°15' E 103°53'0 0.2
2014-Jul-26 14:33N 01°14' E 103°53'0 0.0
2014-Jul-26 13:33N 01°14' E 103°53'0 0.0
2014-Jul-26 12:33N 01°14' E 103°53'0 0.0
2014-Jul-26 11:24N 01°14' E 103°53'0 0.2
2014-Jul-26 10:33N 01°14' E 103°53'0 0.1
2014-Jul-26 09:33N 01°15' E 103°53'3 2.4
2014-Jul-26 08:32N 01°16' E 103°51'0 0.0
2014-Jul-26 07:32N 01°16' E 103°51'0 0.0
2014-Jul-26 06:32N 01°16' E 103°51'0 0.0
2014-Jul-26 05:32N 01°16' E 103°51'0 0.0
2014-Jul-26 04:32N 01°16' E 103°51'0 0.0
2014-Jul-26 03:32N 01°16' E 103°51'0 0.0
2014-Jul-26 02:32N 01°16' E 103°51'0 0.0
2014-Jul-26 01:32N 01°16' E 103°51'0 0.0
2014-Jul-26 00:32N 01°16' E 103°51'0 0.0
2014-Jul-25 23:32N 01°16' E 103°51'0 0.0
2014-Jul-25 22:32N 01°16' E 103°51'0 0.0
2014-Jul-25 21:32N 01°16' E 103°51'0 0.0
2014-Jul-25 20:32N 01°16' E 103°51'0 0.0
2014-Jul-25 19:32N 01°16' E 103°51'0 0.0
2014-Jul-25 18:32N 01°16' E 103°51'0 0.0
2014-Jul-25 17:32N 01°16' E 103°51'0 0.0
2014-Jul-25 16:32N 01°16' E 103°51'0 0.0
2014-Jul-25 15:32N 01°16' E 103°51'0 0.0
2014-Jul-25 14:32N 01°16' E 103°51'0 0.0
2014-Jul-25 13:32N 01°16' E 103°51'0 0.0
2014-Jul-25 12:32N 01°16' E 103°51'0 0.0
2014-Jul-25 11:32N 01°16' E 103°51'0 0.0
2014-Jul-25 10:32N 01°16' E 103°51'0 0.0
2014-Jul-25 09:32N 01°16' E 103°51'0 0.0
2014-Jul-25 08:33N 01°16' E 103°51'1 1.0
2014-Jul-25 07:34N 01°15' E 103°51'3 3.5
2014-Jul-25 06:33N 01°14' E 103°55'5 5.1
2014-Jul-25 05:33N 01°16' E 103°60'  
2014-Jul-20 04:33N 22°34' E 114°17'1 0.9
2014-Jul-20 03:33N 22°34' E 114°16'0 0.0
2014-Jul-20 02:33N 22°34' E 114°16'0 0.0
2014-Jul-20 01:33N 22°34' E 114°16'0 0.0
2014-Jul-20 00:33N 22°34' E 114°16'0 0.0
2014-Jul-19 23:33N 22°34' E 114°16'0 0.0
2014-Jul-19 22:21N 22°34' E 114°16'0 0.0
2014-Jul-19 21:33N 22°34' E 114°16'0 0.0
2014-Jul-19 20:33N 22°34' E 114°16'0 0.0
2014-Jul-19 19:33N 22°34' E 114°16'0 0.0
2014-Jul-19 18:33N 22°34' E 114°16'0 0.0
2014-Jul-19 17:33N 22°34' E 114°16'0 0.0
2014-Jul-19 16:27N 22°34' E 114°16'0 0.0
2014-Jul-19 15:33N 22°34' E 114°16'19 1.3
2014-Jul-19 01:14N 22°18' E 114°06'2 0.2
2014-Jul-18 11:16N 22°20' E 114°07'17 5.5
2014-Jul-18 08:09N 22°04' E 114°16'1 0.9
2014-Jul-18 07:28N 22°05' E 114°15'0 0.0
2014-Jul-18 06:16N 22°05' E 114°15'0 0.0
2014-Jul-18 05:28N 22°05' E 114°15'0 0.0
2014-Jul-18 04:28N 22°04' E 114°15'0 0.0
2014-Jul-18 03:28N 22°04' E 114°15'0 0.0
2014-Jul-18 02:28N 22°04' E 114°15'0 0.0
2014-Jul-18 01:10N 22°04' E 114°15'0 0.0
2014-Jul-18 00:22N 22°04' E 114°15'  

Dump ship's entire track history